Time,TemperatureF,DewpointF,PressureIn,WindDirection,WindDirectionDegrees,WindSpeedMPH,WindSpeedGustMPH,Humidity,HourlyPrecipIn,Conditions,Clouds,dailyrainin,SoftwareType,DateUTC
2013-04-09 00:00:00,48.0,43.0,29.90,WSW,247,13.0,14.0,84,0.00,,,0.06,TxWx,2013-04-09 04:00:00,
2013-04-09 00:01:00,48.0,43.0,29.90,WSW,247,16.0,16.0,84,0.00,,,0.06,TxWx,2013-04-09 04:01:00,
2013-04-09 00:02:00,48.0,42.0,29.90,WNW,292,17.0,21.0,84,0.00,,,0.06,TxWx,2013-04-09 04:02:00,
2013-04-09 00:03:00,48.0,42.0,29.91,WSW,247,14.0,23.0,84,0.00,,,0.06,TxWx,2013-04-09 04:03:00,
2013-04-09 00:11:00,58.0,38.0,29.84,SE,135,19.0,19.0,48,0.00,,,0.00,TxWx,2013-04-09 04:11:00,
2013-04-09 00:16:00,58.0,38.0,29.83,East,90,13.0,18.0,48,0.00,,,0.00,TxWx,2013-04-09 04:16:00,
2013-04-09 00:21:00,58.0,38.0,29.83,SE,135,13.0,14.0,48,0.00,,,0.00,TxWx,2013-04-09 04:21:00,
2013-04-09 00:23:00,48.0,43.0,29.91,WSW,247,15.0,24.0,83,0.00,,,0.06,TxWx,2013-04-09 04:23:00,
2013-04-09 00:24:00,48.0,43.0,29.91,WNW,292,11.0,18.0,83,0.00,,,0.06,TxWx,2013-04-09 04:24:00,
2013-04-09 00:25:00,48.0,43.0,29.91,West,270,12.0,14.0,83,0.00,,,0.06,TxWx,2013-04-09 04:25:00,
2013-04-09 00:26:00,58.0,38.0,29.83,SE,135,11.0,13.0,48,0.00,,,0.00,TxWx,2013-04-09 04:26:00,
2013-04-09 00:27:00,48.0,43.0,29.91,SW,225,14.0,18.0,83,0.00,,,0.06,TxWx,2013-04-09 04:27:00,
2013-04-09 00:31:00,58.0,39.0,29.83,SE,135,13.0,16.0,49,0.00,,,0.00,TxWx,2013-04-09 04:31:00,
2013-04-09 00:32:00,48.0,43.0,29.91,SW,225,10.0,11.0,83,0.00,,,0.06,TxWx,2013-04-09 04:32:00,
2013-04-09 00:33:00,48.0,43.0,29.91,SW,225,13.0,13.0,83,0.00,,,0.06,TxWx,2013-04-09 04:33:00,
2013-04-09 00:36:00,58.0,39.0,29.82,SSE,157,16.0,16.0,49,0.00,,,0.00,TxWx,2013-04-09 04:36:00,
2013-04-09 00:45:00,58.0,39.0,29.82,SE,135,19.0,24.0,50,0.00,,,0.00,TxWx,2013-04-09 04:45:00,
2013-04-09 00:51:00,58.0,39.0,29.82,SSE,157,16.0,21.0,50,0.00,,,0.00,TxWx,2013-04-09 04:51:00,
2013-04-09 00:56:00,58.0,40.0,29.82,SSE,157,14.0,17.0,51,0.00,,,0.00,TxWx,2013-04-09 04:56:00,
2013-04-09 00:59:00,48.0,42.0,29.92,West,270,20.0,21.0,80,0.00,,,0.06,TxWx,2013-04-09 04:59:00,
2013-04-09 01:00:00,48.0,42.0,29.92,SW,225,21.0,27.0,80,0.00,,,0.06,TxWx,2013-04-09 05:00:00,
2013-04-09 01:01:00,48.0,42.0,29.93,WSW,247,14.0,16.0,80,0.00,,,0.06,TxWx,2013-04-09 05:01:00,
2013-04-09 01:02:00,58.0,40.0,29.81,ESE,112,24.0,29.0,51,0.00,,,0.00,TxWx,2013-04-09 05:02:00,
2013-04-09 01:03:00,48.0,42.0,29.93,WSW,247,19.0,23.0,80,0.00,,,0.06,TxWx,2013-04-09 05:03:00,
2013-04-09 01:04:00,48.0,42.0,29.93,WSW,247,13.0,13.0,80,0.00,,,0.06,TxWx,2013-04-09 05:04:00,
2013-04-09 01:05:00,49.0,43.0,29.93,SW,225,12.0,16.0,81,0.00,,,0.06,TxWx,2013-04-09 05:05:00,
2013-04-09 01:06:00,48.0,42.0,29.93,West,270,13.0,14.0,80,0.00,,,0.06,TxWx,2013-04-09 05:06:00,
2013-04-09 01:07:00,58.0,40.0,29.80,ESE,112,13.0,19.0,52,0.00,,,0.00,TxWx,2013-04-09 05:07:00,
2013-04-09 01:08:00,48.0,42.0,29.93,SW,225,23.0,27.0,80,0.00,,,0.06,TxWx,2013-04-09 05:08:00,
2013-04-09 01:09:00,48.0,42.0,29.93,WSW,247,8.0,16.0,80,0.00,,,0.06,TxWx,2013-04-09 05:09:00,
2013-04-09 01:10:00,48.0,42.0,29.93,West,270,13.0,18.0,81,0.00,,,0.06,TxWx,2013-04-09 05:10:00,
2013-04-09 01:11:00,48.0,42.0,29.94,SW,225,16.0,18.0,80,0.00,,,0.06,TxWx,2013-04-09 05:11:00,
2013-04-09 01:12:00,58.0,40.0,29.80,SE,135,12.0,19.0,52,0.00,,,0.00,TxWx,2013-04-09 05:12:00,
2013-04-09 01:13:00,47.0,41.0,29.94,West,270,20.0,25.0,80,0.00,,,0.06,TxWx,2013-04-09 05:13:00,
2013-04-09 01:17:00,58.0,41.0,29.80,SE,135,16.0,21.0,53,0.00,,,0.00,TxWx,2013-04-09 05:17:00,
2013-04-09 01:21:00,48.0,42.0,29.94,West,270,11.0,17.0,81,0.00,,,0.06,TxWx,2013-04-09 05:21:00,
2013-04-09 01:22:00,48.0,42.0,29.93,NW,315,11.0,19.0,81,0.00,,,0.06,TxWx,2013-04-09 05:22:00,
2013-04-09 01:23:00,57.0,41.0,29.79,ESE,112,21.0,26.0,55,0.00,,,0.00,TxWx,2013-04-09 05:23:00,
2013-04-09 01:28:00,57.0,41.0,29.78,ESE,112,12.0,20.0,55,0.00,,,0.00,TxWx,2013-04-09 05:28:00,
2013-04-09 01:31:00,47.0,41.0,29.93,West,270,18.0,21.0,81,0.00,,,0.06,TxWx,2013-04-09 05:31:00,
2013-04-09 01:32:00,48.0,41.0,29.94,SW,225,13.0,23.0,81,0.00,,,0.06,TxWx,2013-04-09 05:32:00,
2013-04-09 01:33:00,57.0,41.0,29.79,SE,135,20.0,22.0,56,0.00,,,0.00,TxWx,2013-04-09 05:33:00,
2013-04-09 01:34:00,47.0,41.0,29.94,West,270,15.0,17.0,81,0.00,,,0.06,TxWx,2013-04-09 05:34:00,
2013-04-09 01:35:00,47.0,41.0,29.93,WSW,247,15.0,22.0,81,0.00,,,0.06,TxWx,2013-04-09 05:35:00,
2013-04-09 01:36:00,47.0,41.0,29.94,West,270,14.0,21.0,81,0.00,,,0.06,TxWx,2013-04-09 05:36:00,
2013-04-09 01:37:00,48.0,42.0,29.94,NW,315,10.0,18.0,81,0.00,,,0.06,TxWx,2013-04-09 05:37:00,
2013-04-09 01:38:00,57.0,42.0,29.80,ESE,112,7.0,10.0,57,0.00,,,0.00,TxWx,2013-04-09 05:38:00,
2013-04-09 01:43:00,55.0,38.0,29.83,NW,315,10.0,11.0,54,0.00,,,0.00,TxWx,2013-04-09 05:43:00,
2013-04-09 01:44:00,47.0,41.0,29.94,SW,225,14.0,26.0,81,0.00,,,0.06,TxWx,2013-04-09 05:44:00,
2013-04-09 01:45:00,47.0,41.0,29.94,WSW,247,19.0,19.0,81,0.00,,,0.06,TxWx,2013-04-09 05:45:00,
2013-04-09 01:46:00,46.0,41.0,29.94,WSW,247,17.0,20.0,81,0.00,,,0.06,TxWx,2013-04-09 05:46:00,
2013-04-09 01:47:00,47.0,42.0,29.95,WSW,247,12.0,13.0,82,0.00,,,0.06,TxWx,2013-04-09 05:47:00,
2013-04-09 01:48:00,54.0,39.0,29.84,ENE,67,3.0,4.0,57,0.00,,,0.00,TxWx,2013-04-09 05:48:00,
2013-04-09 01:53:00,52.0,38.0,29.84,South,180,0.0,1.0,59,0.00,,,0.00,TxWx,2013-04-09 05:53:00,
2013-04-09 01:58:00,55.0,42.0,29.82,SSE,157,6.0,6.0,62,0.00,,,0.00,TxWx,2013-04-09 05:58:00,
2013-04-09 02:03:00,54.0,40.0,29.85,WNW,292,6.0,7.0,61,0.00,,,0.00,TxWx,2013-04-09 06:03:00,
2013-04-09 02:08:00,53.0,42.0,29.83,SE,135,5.0,5.0,65,0.00,,,0.00,TxWx,2013-04-09 06:08:00,
2013-04-09 02:14:00,55.0,45.0,29.81,SE,135,8.0,10.0,69,0.60,,,0.01,TxWx,2013-04-09 06:14:00,
2013-04-09 02:18:00,46.0,41.0,29.94,West,270,11.0,14.0,83,0.00,,,0.06,TxWx,2013-04-09 06:18:00,
2013-04-09 02:19:00,46.0,41.0,29.94,West,270,12.0,16.0,83,0.00,,,0.06,TxWx,2013-04-09 06:19:00,
2013-04-09 02:20:00,46.0,41.0,29.94,WSW,247,13.0,16.0,83,0.00,,,0.06,TxWx,2013-04-09 06:20:00,
2013-04-09 02:24:00,54.0,44.0,29.78,ESE,112,12.0,13.0,70,0.00,,,0.02,TxWx,2013-04-09 06:24:00,
2013-04-09 02:30:00,54.0,45.0,29.78,ESE,112,13.0,14.0,71,0.00,,,0.02,TxWx,2013-04-09 06:30:00,
2013-04-09 02:35:00,54.0,45.0,29.80,SSE,157,11.0,16.0,72,0.60,,,0.02,TxWx,2013-04-09 06:35:00,
2013-04-09 02:36:00,47.0,42.0,29.94,WSW,247,13.0,14.0,82,0.00,,,0.06,TxWx,2013-04-09 06:36:00,
2013-04-09 02:43:00,52.0,45.0,29.76,ESE,112,16.0,18.0,77,0.60,,,0.05,TxWx,2013-04-09 06:43:00,
2013-04-09 02:44:00,46.0,41.0,29.94,SW,225,21.0,21.0,82,0.00,,,0.06,TxWx,2013-04-09 06:44:00,
2013-04-09 02:45:00,46.0,41.0,29.95,West,270,12.0,15.0,83,0.00,,,0.06,TxWx,2013-04-09 06:45:00,
2013-04-09 02:46:00,46.0,41.0,29.94,WSW,247,15.0,18.0,83,0.00,,,0.06,TxWx,2013-04-09 06:46:00,
2013-04-09 02:48:00,54.0,47.0,29.76,ESE,112,18.0,25.0,79,0.60,,,0.06,TxWx,2013-04-09 06:48:00,
2013-04-09 02:53:00,54.0,47.0,29.77,ESE,112,19.0,26.0,76,0.60,,,0.06,TxWx,2013-04-09 06:53:00,
2013-04-09 02:58:00,53.0,46.0,29.76,ESE,112,22.0,22.0,77,0.60,,,0.06,TxWx,2013-04-09 06:58:00,
2013-04-09 03:03:00,54.0,47.0,29.75,ESE,112,19.0,19.0,77,0.00,,,0.06,TxWx,2013-04-09 07:03:00,
2013-04-09 03:10:00,54.0,47.0,29.76,ESE,112,24.0,24.0,78,0.00,,,0.06,TxWx,2013-04-09 07:10:00,
2013-04-09 03:15:00,54.0,47.0,29.75,SE,135,16.0,22.0,78,0.00,,,0.06,TxWx,2013-04-09 07:15:00,
2013-04-09 03:20:00,54.0,47.0,29.75,SE,135,19.0,20.0,76,0.00,,,0.06,TxWx,2013-04-09 07:20:00,
2013-04-09 03:25:00,54.0,47.0,29.74,SE,135,21.0,26.0,76,0.00,,,0.06,TxWx,2013-04-09 07:25:00,
2013-04-09 03:30:00,54.0,46.0,29.74,ESE,112,26.0,27.0,75,0.00,,,0.06,TxWx,2013-04-09 07:30:00,
2013-04-09 03:35:00,54.0,46.0,29.74,ESE,112,24.0,26.0,76,0.00,,,0.06,TxWx,2013-04-09 07:35:00,
2013-04-09 03:41:00,53.0,46.0,29.74,SE,135,18.0,27.0,76,0.00,,,0.06,TxWx,2013-04-09 07:41:00,
2013-04-09 03:46:00,53.0,46.0,29.74,ESE,112,21.0,24.0,76,0.00,,,0.06,TxWx,2013-04-09 07:46:00,
2013-04-09 03:51:00,54.0,47.0,29.74,ESE,112,27.0,27.0,76,0.00,,,0.06,TxWx,2013-04-09 07:51:00,
2013-04-09 03:58:00,53.0,46.0,29.74,ESE,112,23.0,23.0,76,0.00,,,0.06,TxWx,2013-04-09 07:58:00,
2013-04-09 04:08:00,54.0,46.0,29.74,East,90,19.0,21.0,75,0.00,,,0.06,TxWx,2013-04-09 08:08:00,
2013-04-09 04:13:00,54.0,46.0,29.73,ESE,112,13.0,18.0,75,0.00,,,0.06,TxWx,2013-04-09 08:13:00,
2013-04-09 04:14:00,48.0,41.0,29.95,West,270,12.0,19.0,74,0.00,,,0.06,TxWx,2013-04-09 08:14:00,
2013-04-09 04:15:00,48.0,40.0,29.95,West,270,13.0,17.0,74,0.00,,,0.06,TxWx,2013-04-09 08:15:00,
2013-04-09 04:17:00,49.0,40.0,29.95,West,270,11.0,19.0,74,0.00,,,0.06,TxWx,2013-04-09 08:17:00,
2013-04-09 04:18:00,49.0,41.0,29.96,SW,225,10.0,14.0,74,0.00,,,0.06,TxWx,2013-04-09 08:18:00,
2013-04-09 04:19:00,54.0,46.0,29.73,ESE,112,22.0,23.0,75,0.00,,,0.06,TxWx,2013-04-09 08:19:00,
2013-04-09 04:24:00,54.0,46.0,29.74,SE,135,18.0,19.0,75,0.00,,,0.06,TxWx,2013-04-09 08:24:00,
2013-04-09 04:35:00,54.0,46.0,29.74,SE,135,18.0,23.0,75,0.00,,,0.06,TxWx,2013-04-09 08:35:00,
2013-04-09 04:40:00,54.0,46.0,29.73,ESE,112,18.0,19.0,75,0.00,,,0.06,TxWx,2013-04-09 08:40:00,
2013-04-09 04:45:00,53.0,45.0,29.73,ESE,112,22.0,23.0,75,0.00,,,0.06,TxWx,2013-04-09 08:45:00,
2013-04-09 04:50:00,53.0,45.0,29.73,ESE,112,21.0,21.0,76,0.00,,,0.06,TxWx,2013-04-09 08:50:00,
2013-04-09 04:56:00,54.0,46.0,29.74,East,90,17.0,21.0,76,0.00,,,0.06,TxWx,2013-04-09 08:56:00,
2013-04-09 04:57:00,50.0,41.0,29.93,West,270,10.0,10.0,72,0.00,,,0.06,TxWx,2013-04-09 08:57:00,
2013-04-09 04:58:00,50.0,41.0,29.93,West,270,7.0,8.0,72,0.00,,,0.06,TxWx,2013-04-09 08:58:00,
2013-04-09 05:01:00,54.0,46.0,29.74,SE,135,16.0,18.0,76,0.00,,,0.06,TxWx,2013-04-09 09:01:00,
2013-04-09 05:06:00,54.0,47.0,29.73,ESE,112,19.0,22.0,76,0.00,,,0.06,TxWx,2013-04-09 09:06:00,
2013-04-09 05:11:00,54.0,47.0,29.74,ESE,112,14.0,16.0,76,0.00,,,0.06,TxWx,2013-04-09 09:11:00,
2013-04-09 05:16:00,54.0,47.0,29.74,ESE,112,21.0,26.0,76,0.00,,,0.06,TxWx,2013-04-09 09:16:00,
2013-04-09 05:21:00,54.0,47.0,29.74,ESE,112,18.0,19.0,76,0.00,,,0.06,TxWx,2013-04-09 09:21:00,
2013-04-09 05:26:00,54.0,47.0,29.74,SE,135,16.0,21.0,76,0.00,,,0.06,TxWx,2013-04-09 09:26:00,
2013-04-09 05:31:00,54.0,47.0,29.74,SE,135,15.0,23.0,76,0.00,,,0.06,TxWx,2013-04-09 09:31:00,
2013-04-09 05:36:00,54.0,46.0,29.74,ESE,112,15.0,18.0,76,0.00,,,0.06,TxWx,2013-04-09 09:36:00,
2013-04-09 05:37:00,50.0,39.0,29.92,SSW,202,8.0,10.0,66,0.00,,,0.06,TxWx,2013-04-09 09:37:00,
2013-04-09 05:41:00,54.0,46.0,29.74,SE,135,18.0,18.0,76,0.00,,,0.06,TxWx,2013-04-09 09:41:00,
2013-04-09 05:46:00,54.0,46.0,29.74,ESE,112,17.0,17.0,75,0.00,,,0.06,TxWx,2013-04-09 09:46:00,
2013-04-09 05:48:00,52.0,42.0,29.92,SSW,202,9.0,10.0,68,0.00,,,0.06,TxWx,2013-04-09 09:48:00,
2013-04-09 05:49:00,51.0,40.0,29.92,SSW,202,7.0,10.0,67,0.00,,,0.06,TxWx,2013-04-09 09:49:00,
2013-04-09 05:52:00,54.0,46.0,29.75,ESE,112,20.0,20.0,75,0.00,,,0.06,TxWx,2013-04-09 09:52:00,
2013-04-09 05:57:00,55.0,47.0,29.74,SE,135,13.0,15.0,75,0.00,,,0.06,TxWx,2013-04-09 09:57:00,
2013-04-09 05:58:00,52.0,41.0,29.92,WSW,247,13.0,13.0,65,0.00,,,0.06,TxWx,2013-04-09 09:58:00,
2013-04-09 05:59:00,51.0,39.0,29.92,West,270,8.0,10.0,65,0.00,,,0.06,TxWx,2013-04-09 09:59:00,
2013-04-09 06:00:00,52.0,41.0,29.93,WSW,247,10.0,13.0,65,0.00,,,0.06,TxWx,2013-04-09 10:00:00,
2013-04-09 06:01:00,51.0,40.0,29.92,SW,225,8.0,11.0,65,0.00,,,0.06,TxWx,2013-04-09 10:01:00,
2013-04-09 06:02:00,54.0,46.0,29.74,ESE,112,19.0,19.0,75,0.00,,,0.06,TxWx,2013-04-09 10:02:00,
2013-04-09 06:03:00,51.0,40.0,29.92,WSW,247,10.0,12.0,65,0.00,,,0.06,TxWx,2013-04-09 10:03:00,
2013-04-09 06:04:00,51.0,40.0,29.92,WSW,247,11.0,12.0,66,0.00,,,0.06,TxWx,2013-04-09 10:04:00,
2013-04-09 06:05:00,52.0,41.0,29.92,SSW,202,14.0,14.0,66,0.00,,,0.06,TxWx,2013-04-09 10:05:00,
2013-04-09 06:06:00,51.0,40.0,29.92,West,270,8.0,11.0,66,0.00,,,0.06,TxWx,2013-04-09 10:06:00,
2013-04-09 06:07:00,55.0,47.0,29.75,ESE,112,16.0,22.0,75,0.00,,,0.06,TxWx,2013-04-09 10:07:00,
2013-04-09 06:08:00,51.0,40.0,29.92,SSW,202,16.0,17.0,66,0.00,,,0.06,TxWx,2013-04-09 10:08:00,
2013-04-09 06:09:00,51.0,40.0,29.92,SW,225,8.0,10.0,66,0.00,,,0.06,TxWx,2013-04-09 10:09:00,
2013-04-09 06:10:00,51.0,40.0,29.92,SW,225,9.0,11.0,66,0.00,,,0.06,TxWx,2013-04-09 10:10:00,
2013-04-09 06:11:00,51.0,40.0,29.92,WSW,247,6.0,11.0,66,0.00,,,0.06,TxWx,2013-04-09 10:11:00,
2013-04-09 06:12:00,55.0,47.0,29.74,SE,135,17.0,18.0,75,0.00,,,0.06,TxWx,2013-04-09 10:12:00,
2013-04-09 06:13:00,51.0,40.0,29.92,SW,225,10.0,11.0,67,0.00,,,0.06,TxWx,2013-04-09 10:13:00,
2013-04-09 06:16:00,51.0,40.0,29.92,WSW,247,7.0,8.0,67,0.00,,,0.06,TxWx,2013-04-09 10:16:00,
2013-04-09 06:17:00,54.0,46.0,29.74,ESE,112,19.0,19.0,75,0.00,,,0.06,TxWx,2013-04-09 10:17:00,
2013-04-09 06:18:00,52.0,41.0,29.92,WSW,247,5.0,9.0,66,0.00,,,0.06,TxWx,2013-04-09 10:18:00,
2013-04-09 06:23:00,54.0,46.0,29.75,SE,135,15.0,19.0,75,0.00,,,0.06,TxWx,2013-04-09 10:23:00,
2013-04-09 06:28:00,54.0,46.0,29.75,ESE,112,20.0,23.0,75,0.00,,,0.06,TxWx,2013-04-09 10:28:00,
2013-04-09 06:33:00,55.0,47.0,29.75,SE,135,14.0,16.0,75,0.00,,,0.06,TxWx,2013-04-09 10:33:00,
2013-04-09 06:38:00,55.0,47.0,29.75,SE,135,15.0,18.0,75,0.00,,,0.06,TxWx,2013-04-09 10:38:00,
2013-04-09 06:41:00,51.0,40.0,29.93,WSW,247,8.0,10.0,65,0.00,,,0.06,TxWx,2013-04-09 10:41:00,
2013-04-09 06:42:00,51.0,40.0,29.93,West,270,11.0,13.0,66,0.00,,,0.06,TxWx,2013-04-09 10:42:00,
2013-04-09 06:45:00,55.0,47.0,29.75,ESE,112,16.0,16.0,75,0.00,,,0.06,TxWx,2013-04-09 10:45:00,
2013-04-09 06:49:00,53.0,42.0,29.92,West,270,2.0,3.0,65,0.00,,,0.06,TxWx,2013-04-09 10:49:00,
2013-04-09 06:50:00,52.0,40.0,29.92,SW,225,6.0,6.0,65,0.00,,,0.06,TxWx,2013-04-09 10:50:00,
2013-04-09 06:51:00,55.0,47.0,29.75,SSE,157,16.0,16.0,75,0.00,,,0.06,TxWx,2013-04-09 10:51:00,
2013-04-09 06:56:00,54.0,46.0,29.77,SW,225,13.0,13.0,75,0.00,,,0.06,TxWx,2013-04-09 10:56:00,
2013-04-09 07:06:00,52.0,40.0,29.93,WSW,247,9.0,10.0,63,0.00,,,0.06,TxWx,2013-04-09 11:06:00,
2013-04-09 07:07:00,53.0,40.0,29.93,WSW,247,6.0,10.0,63,0.00,,,0.06,TxWx,2013-04-09 11:07:00,
2013-04-09 07:08:00,52.0,40.0,29.93,West,270,8.0,9.0,63,0.00,,,0.06,TxWx,2013-04-09 11:08:00,
2013-04-09 07:09:00,52.0,40.0,29.93,WSW,247,6.0,7.0,63,0.00,,,0.06,TxWx,2013-04-09 11:09:00,
2013-04-09 07:10:00,52.0,40.0,29.93,West,270,7.0,8.0,63,0.00,,,0.06,TxWx,2013-04-09 11:10:00,
2013-04-09 07:13:00,52.0,46.0,29.79,WSW,247,8.0,9.0,81,0.00,,,0.06,TxWx,2013-04-09 11:13:00,
2013-04-09 07:18:00,53.0,46.0,29.80,SSW,202,13.0,13.0,81,0.00,,,0.06,TxWx,2013-04-09 11:18:00,
2013-04-09 07:23:00,53.0,47.0,29.80,SW,225,11.0,12.0,80,0.00,,,0.06,TxWx,2013-04-09 11:23:00,
2013-04-09 07:26:00,53.0,41.0,29.93,West,270,6.0,8.0,63,0.00,,,0.06,TxWx,2013-04-09 11:26:00,
2013-04-09 07:27:00,53.0,41.0,29.93,WSW,247,8.0,8.0,63,0.00,,,0.06,TxWx,2013-04-09 11:27:00,
2013-04-09 07:28:00,53.0,47.0,29.80,SSW,202,7.0,8.0,79,0.00,,,0.06,TxWx,2013-04-09 11:28:00,
2013-04-09 07:35:00,54.0,47.0,29.80,SW,225,5.0,6.0,78,0.00,,,0.06,TxWx,2013-04-09 11:35:00,
2013-04-09 07:41:00,54.0,47.0,29.81,SW,225,11.0,11.0,77,0.00,,,0.06,TxWx,2013-04-09 11:41:00,
2013-04-09 07:46:00,54.0,47.0,29.81,WSW,247,4.0,5.0,77,0.00,,,0.06,TxWx,2013-04-09 11:46:00,
2013-04-09 07:53:00,53.0,46.0,29.82,SW,225,5.0,8.0,77,0.00,,,0.06,TxWx,2013-04-09 11:53:00,
2013-04-09 07:54:00,53.0,41.0,29.92,West,270,6.0,8.0,63,0.00,,,0.06,TxWx,2013-04-09 11:54:00,
2013-04-09 07:55:00,53.0,41.0,29.92,WNW,292,5.0,5.0,63,0.00,,,0.06,TxWx,2013-04-09 11:55:00,
2013-04-09 07:56:00,53.0,41.0,29.93,WSW,247,6.0,8.0,63,0.00,,,0.06,TxWx,2013-04-09 11:56:00,
2013-04-09 07:57:00,53.0,41.0,29.92,SW,225,6.0,7.0,63,0.00,,,0.06,TxWx,2013-04-09 11:57:00,
2013-04-09 07:58:00,53.0,46.0,29.82,WNW,292,8.0,10.0,77,0.00,,,0.06,TxWx,2013-04-09 11:58:00,
2013-04-09 08:03:00,53.0,46.0,29.82,WNW,292,10.0,14.0,77,0.00,,,0.06,TxWx,2013-04-09 12:03:00,
2013-04-09 08:08:00,53.0,46.0,29.82,West,270,7.0,8.0,78,0.00,,,0.06,TxWx,2013-04-09 12:08:00,
2013-04-09 08:13:00,53.0,46.0,29.83,West,270,7.0,7.0,78,0.00,,,0.06,TxWx,2013-04-09 12:13:00,
2013-04-09 08:18:00,52.0,45.0,29.83,SW,225,8.0,8.0,78,0.00,,,0.06,TxWx,2013-04-09 12:18:00,
2013-04-09 08:21:00,52.0,40.0,29.93,West,270,6.0,8.0,63,0.00,,,0.06,TxWx,2013-04-09 12:21:00,
2013-04-09 08:22:00,52.0,40.0,29.93,SSW,202,5.0,10.0,63,0.00,,,0.06,TxWx,2013-04-09 12:22:00,
2013-04-09 08:23:00,52.0,45.0,29.83,West,270,8.0,8.0,78,0.00,,,0.06,TxWx,2013-04-09 12:23:00,
2013-04-09 08:28:00,52.0,45.0,29.84,WSW,247,16.0,16.0,78,0.00,,,0.06,TxWx,2013-04-09 12:28:00,
2013-04-09 08:31:00,52.0,40.0,29.92,WNW,292,4.0,4.0,64,0.00,,,0.06,TxWx,2013-04-09 12:31:00,
2013-04-09 08:33:00,52.0,45.0,29.84,WNW,292,8.0,8.0,78,0.00,,,0.06,TxWx,2013-04-09 12:33:00,
2013-04-09 08:38:00,53.0,46.0,29.84,West,270,7.0,9.0,78,0.00,,,0.06,TxWx,2013-04-09 12:38:00,
2013-04-09 08:44:00,52.0,45.0,29.84,West,270,10.0,16.0,78,0.00,,,0.06,TxWx,2013-04-09 12:44:00,
2013-04-09 08:49:00,52.0,45.0,29.85,WSW,247,16.0,23.0,77,0.00,,,0.06,TxWx,2013-04-09 12:49:00,
2013-04-09 08:54:00,52.0,45.0,29.85,WSW,247,14.0,23.0,77,0.00,,,0.06,TxWx,2013-04-09 12:54:00,
2013-04-09 08:59:00,52.0,45.0,29.86,WSW,247,18.0,20.0,77,0.00,,,0.06,TxWx,2013-04-09 12:59:00,
2013-04-09 09:04:00,52.0,45.0,29.86,NW,315,12.0,16.0,78,0.00,,,0.06,TxWx,2013-04-09 13:04:00,
2013-04-09 09:07:00,51.0,40.0,29.92,SW,225,6.0,7.0,65,0.00,,,0.06,TxWx,2013-04-09 13:07:00,
2013-04-09 09:08:00,51.0,40.0,29.92,WSW,247,6.0,8.0,65,0.00,,,0.06,TxWx,2013-04-09 13:08:00,
2013-04-09 09:09:00,52.0,46.0,29.86,SW,225,9.0,13.0,79,0.00,,,0.06,TxWx,2013-04-09 13:09:00,
2013-04-09 09:10:00,51.0,40.0,29.93,WSW,247,5.0,6.0,65,0.00,,,0.06,TxWx,2013-04-09 13:10:00,
2013-04-09 09:14:00,51.0,45.0,29.87,WSW,247,13.0,17.0,80,0.00,,,0.06,TxWx,2013-04-09 13:14:00,
2013-04-09 09:16:00,51.0,40.0,29.92,WSW,247,3.0,3.0,65,0.00,,,0.06,TxWx,2013-04-09 13:16:00,
2013-04-09 09:17:00,51.0,40.0,29.92,WSW,247,3.0,4.0,65,0.00,,,0.06,TxWx,2013-04-09 13:17:00,
2013-04-09 09:18:00,51.0,40.0,29.92,West,270,3.0,4.0,65,0.00,,,0.06,TxWx,2013-04-09 13:18:00,
2013-04-09 09:19:00,51.0,45.0,29.87,West,270,18.0,24.0,80,0.00,,,0.06,TxWx,2013-04-09 13:19:00,
2013-04-09 09:20:00,51.0,40.0,29.92,West,270,3.0,4.0,66,0.00,,,0.06,TxWx,2013-04-09 13:20:00,
2013-04-09 09:21:00,51.0,40.0,29.92,West,270,3.0,3.0,66,0.00,,,0.06,TxWx,2013-04-09 13:21:00,
2013-04-09 09:22:00,51.0,40.0,29.92,WNW,292,4.0,5.0,66,0.00,,,0.06,TxWx,2013-04-09 13:22:00,
2013-04-09 09:23:00,51.0,40.0,29.92,WNW,292,4.0,5.0,66,0.00,,,0.06,TxWx,2013-04-09 13:23:00,
2013-04-09 09:24:00,50.0,44.0,29.88,WSW,247,18.0,18.0,81,0.00,,,0.06,TxWx,2013-04-09 13:24:00,
2013-04-09 09:25:00,51.0,40.0,29.92,West,270,5.0,5.0,66,0.00,,,0.06,TxWx,2013-04-09 13:25:00,
2013-04-09 09:26:00,51.0,40.0,29.92,WNW,292,5.0,5.0,66,0.00,,,0.06,TxWx,2013-04-09 13:26:00,
2013-04-09 09:27:00,51.0,40.0,29.92,NW,315,5.0,5.0,66,0.00,,,0.06,TxWx,2013-04-09 13:27:00,
2013-04-09 09:28:00,51.0,40.0,29.92,WNW,292,6.0,7.0,66,0.00,,,0.06,TxWx,2013-04-09 13:28:00,
2013-04-09 09:29:00,50.0,45.0,29.88,West,270,13.0,21.0,82,0.00,,,0.06,TxWx,2013-04-09 13:29:00,
2013-04-09 09:30:00,51.0,40.0,29.92,West,270,8.0,10.0,65,0.00,,,0.06,TxWx,2013-04-09 13:30:00,
2013-04-09 09:34:00,49.0,45.0,29.89,West,270,8.0,12.0,83,0.00,,,0.06,TxWx,2013-04-09 13:34:00,
2013-04-09 09:41:00,49.0,44.0,29.89,West,270,18.0,18.0,84,0.00,,,0.06,TxWx,2013-04-09 13:41:00,
2013-04-09 09:42:00,51.0,39.0,29.92,NW,315,6.0,6.0,64,0.00,,,0.06,TxWx,2013-04-09 13:42:00,
2013-04-09 09:43:00,51.0,39.0,29.92,NNW,337,6.0,7.0,64,0.00,,,0.06,TxWx,2013-04-09 13:43:00,
2013-04-09 09:44:00,51.0,39.0,29.93,WNW,292,5.0,6.0,64,0.00,,,0.06,TxWx,2013-04-09 13:44:00,
2013-04-09 09:45:00,51.0,40.0,29.93,WNW,292,6.0,8.0,64,0.00,,,0.06,TxWx,2013-04-09 13:45:00,
2013-04-09 09:46:00,49.0,45.0,29.90,West,270,11.0,18.0,85,0.00,,,0.06,TxWx,2013-04-09 13:46:00,
2013-04-09 09:52:00,52.0,40.0,29.92,NW,315,3.0,3.0,64,0.00,,,0.06,TxWx,2013-04-09 13:52:00,
2013-04-09 09:53:00,48.0,43.0,29.90,SW,225,19.0,19.0,84,0.00,,,0.06,TxWx,2013-04-09 13:53:00,
2013-04-09 09:58:00,48.0,43.0,29.90,WSW,247,17.0,17.0,84,0.00,,,0.06,TxWx,2013-04-09 13:58:00,
2013-04-09 10:03:00,48.0,43.0,29.91,SW,225,10.0,19.0,84,0.00,,,0.06,TxWx,2013-04-09 14:03:00,
2013-04-09 10:08:00,48.0,44.0,29.91,WSW,247,16.0,16.0,85,0.00,,,0.06,TxWx,2013-04-09 14:08:00,
2013-04-09 10:13:00,48.0,44.0,29.91,West,270,14.0,23.0,85,0.00,,,0.06,TxWx,2013-04-09 14:13:00,
2013-04-09 10:18:00,48.0,43.0,29.92,WSW,247,8.0,14.0,84,0.00,,,0.06,TxWx,2013-04-09 14:18:00,
2013-04-09 10:23:00,48.0,43.0,29.91,WSW,247,14.0,16.0,83,0.00,,,0.06,TxWx,2013-04-09 14:23:00,
2013-04-09 10:28:00,48.0,43.0,29.91,SSW,202,12.0,14.0,83,0.00,,,0.06,TxWx,2013-04-09 14:28:00,
2013-04-09 10:34:00,48.0,43.0,29.91,SW,225,16.0,19.0,82,0.00,,,0.06,TxWx,2013-04-09 14:34:00,
2013-04-09 10:39:00,48.0,43.0,29.92,WSW,247,17.0,21.0,82,0.00,,,0.06,TxWx,2013-04-09 14:39:00,
2013-04-09 10:44:00,48.0,42.0,29.92,South,180,13.0,15.0,81,0.00,,,0.06,TxWx,2013-04-09 14:44:00,
2013-04-09 10:49:00,48.0,42.0,29.92,West,270,16.0,16.0,81,0.00,,,0.06,TxWx,2013-04-09 14:49:00,
2013-04-09 10:54:00,49.0,43.0,29.92,WSW,247,8.0,10.0,81,0.00,,,0.06,TxWx,2013-04-09 14:54:00,
2013-04-09 11:04:00,49.0,42.0,29.93,West,270,8.0,12.0,80,0.00,,,0.06,TxWx,2013-04-09 15:04:00,
2013-04-09 11:09:00,48.0,42.0,29.93,SW,225,11.0,12.0,80,0.00,,,0.06,TxWx,2013-04-09 15:09:00,
2013-04-09 11:14:00,47.0,42.0,29.93,SW,225,17.0,21.0,80,0.00,,,0.06,TxWx,2013-04-09 15:14:00,
2013-04-09 11:16:00,52.0,39.0,29.94,NNW,337,2.0,3.0,62,0.00,,,0.06,TxWx,2013-04-09 15:16:00,
2013-04-09 11:17:00,52.0,39.0,29.94,SSE,157,1.0,1.0,62,0.00,,,0.06,TxWx,2013-04-09 15:17:00,
2013-04-09 11:18:00,52.0,39.0,29.94,NW,315,4.0,5.0,62,0.00,,,0.06,TxWx,2013-04-09 15:18:00,
2013-04-09 11:19:00,48.0,42.0,29.93,WSW,247,14.0,16.0,81,0.00,,,0.06,TxWx,2013-04-09 15:19:00,
2013-04-09 11:20:00,52.0,39.0,29.94,North,0,1.0,3.0,62,0.00,,,0.06,TxWx,2013-04-09 15:20:00,
2013-04-09 11:24:00,47.0,41.0,29.94,West,270,18.0,18.0,81,0.00,,,0.06,TxWx,2013-04-09 15:24:00,
2013-04-09 11:26:00,52.0,39.0,29.93,North,0,3.0,4.0,62,0.00,,,0.06,TxWx,2013-04-09 15:26:00,
2013-04-09 11:27:00,52.0,39.0,29.93,NNE,22,4.0,4.0,62,0.00,,,0.06,TxWx,2013-04-09 15:27:00,
2013-04-09 11:28:00,52.0,39.0,29.93,NE,45,4.0,4.0,62,0.00,,,0.06,TxWx,2013-04-09 15:28:00,
2013-04-09 11:29:00,47.0,41.0,29.94,SW,225,10.0,13.0,81,0.00,,,0.06,TxWx,2013-04-09 15:29:00,
2013-04-09 11:36:00,47.0,41.0,29.94,West,270,16.0,18.0,81,0.00,,,0.06,TxWx,2013-04-09 15:36:00,
2013-04-09 11:41:00,47.0,41.0,29.94,WSW,247,8.0,10.0,81,0.00,,,0.06,TxWx,2013-04-09 15:41:00,
2013-04-09 11:48:00,47.0,42.0,29.95,SW,225,14.0,24.0,82,0.00,,,0.06,TxWx,2013-04-09 15:48:00,
2013-04-09 11:53:00,46.0,41.0,29.95,SW,225,21.0,21.0,82,0.00,,,0.06,TxWx,2013-04-09 15:53:00,
2013-04-09 11:58:00,47.0,42.0,29.94,WSW,247,8.0,10.0,83,0.00,,,0.06,TxWx,2013-04-09 15:58:00,
2013-04-09 12:03:00,47.0,42.0,29.94,West,270,10.0,10.0,82,0.00,,,0.06,TxWx,2013-04-09 16:03:00,
2013-04-09 12:08:00,47.0,42.0,29.94,WNW,292,15.0,15.0,82,0.00,,,0.06,TxWx,2013-04-09 16:08:00,
2013-04-09 12:13:00,46.0,41.0,29.94,West,270,14.0,21.0,82,0.00,,,0.06,TxWx,2013-04-09 16:13:00,
2013-04-09 12:18:00,46.0,41.0,29.94,WSW,247,13.0,18.0,83,0.00,,,0.06,TxWx,2013-04-09 16:18:00,
2013-04-09 12:23:00,46.0,41.0,29.93,WSW,247,12.0,20.0,83,0.00,,,0.06,TxWx,2013-04-09 16:23:00,
2013-04-09 12:29:00,46.0,41.0,29.94,WSW,247,10.0,14.0,84,0.00,,,0.06,TxWx,2013-04-09 16:29:00,
2013-04-09 12:34:00,47.0,42.0,29.94,WSW,247,11.0,13.0,83,0.00,,,0.06,TxWx,2013-04-09 16:34:00,
2013-04-09 12:39:00,47.0,42.0,29.95,SW,225,6.0,11.0,82,0.00,,,0.06,TxWx,2013-04-09 16:39:00,
2013-04-09 12:41:00,51.0,40.0,29.86,NE,45,4.0,6.0,66,0.00,,,0.06,TxWx,2013-04-09 16:41:00,
2013-04-09 12:42:00,51.0,40.0,29.86,NNE,22,3.0,5.0,66,0.00,,,0.06,TxWx,2013-04-09 16:42:00,
2013-04-09 12:43:00,51.0,40.0,29.86,North,0,3.0,3.0,66,0.00,,,0.06,TxWx,2013-04-09 16:43:00,
2013-04-09 12:44:00,46.0,41.0,29.94,SSW,202,12.0,13.0,82,0.00,,,0.06,TxWx,2013-04-09 16:44:00,
2013-04-09 12:45:00,51.0,40.0,29.86,NNW,337,4.0,5.0,65,0.00,,,0.06,TxWx,2013-04-09 16:45:00,
2013-04-09 12:49:00,46.0,41.0,29.94,WSW,247,10.0,10.0,84,0.00,,,0.06,TxWx,2013-04-09 16:49:00,
2013-04-09 12:54:00,45.0,41.0,29.95,West,270,16.0,18.0,85,0.00,,,0.06,TxWx,2013-04-09 16:54:00,
2013-04-09 12:59:00,46.0,41.0,29.94,WSW,247,12.0,18.0,83,0.00,,,0.06,TxWx,2013-04-09 16:59:00,
2013-04-09 13:04:00,46.0,41.0,29.94,SW,225,15.0,16.0,82,0.00,,,0.06,TxWx,2013-04-09 17:04:00,
2013-04-09 13:09:00,47.0,41.0,29.93,WSW,247,12.0,16.0,80,0.00,,,0.06,TxWx,2013-04-09 17:09:00,
2013-04-09 13:14:00,47.0,40.0,29.93,SW,225,22.0,25.0,78,0.00,,,0.06,TxWx,2013-04-09 17:14:00,
2013-04-09 13:16:00,49.0,39.0,29.86,West,270,2.0,2.0,69,0.00,,,0.06,TxWx,2013-04-09 17:16:00,
2013-04-09 13:17:00,50.0,40.0,29.87,SW,225,2.0,2.0,69,0.00,,,0.06,TxWx,2013-04-09 17:17:00,
2013-04-09 13:18:00,50.0,40.0,29.86,SW,225,2.0,3.0,69,0.00,,,0.06,TxWx,2013-04-09 17:18:00,
2013-04-09 13:19:00,48.0,42.0,29.93,WSW,247,8.0,10.0,79,0.00,,,0.06,TxWx,2013-04-09 17:19:00,
2013-04-09 13:20:00,50.0,40.0,29.86,West,270,3.0,3.0,69,0.00,,,0.06,TxWx,2013-04-09 17:20:00,
2013-04-09 13:24:00,47.0,40.0,29.94,West,270,16.0,21.0,78,0.00,,,0.06,TxWx,2013-04-09 17:24:00,
2013-04-09 13:29:00,47.0,41.0,29.94,West,270,8.0,13.0,79,0.00,,,0.06,TxWx,2013-04-09 17:29:00,
2013-04-09 13:31:00,49.0,39.0,29.85,NNE,22,4.0,5.0,69,0.00,,,0.06,TxWx,2013-04-09 17:31:00,
2013-04-09 13:32:00,49.0,39.0,29.85,NNE,22,4.0,4.0,69,0.00,,,0.06,TxWx,2013-04-09 17:32:00,
2013-04-09 13:33:00,50.0,40.0,29.85,North,0,2.0,3.0,69,0.00,,,0.06,TxWx,2013-04-09 17:33:00,
2013-04-09 13:34:00,47.0,41.0,29.95,WNW,292,11.0,14.0,79,0.00,,,0.06,TxWx,2013-04-09 17:34:00,
2013-04-09 13:35:00,50.0,40.0,29.85,ENE,67,1.0,1.0,70,0.00,,,0.06,TxWx,2013-04-09 17:35:00,
2013-04-09 13:40:00,47.0,41.0,29.95,NW,315,11.0,12.0,79,0.00,,,0.06,TxWx,2013-04-09 17:40:00,
2013-04-09 13:45:00,48.0,42.0,29.95,SW,225,16.0,16.0,79,0.00,,,0.06,TxWx,2013-04-09 17:45:00,
2013-04-09 13:50:00,47.0,40.0,29.94,West,270,8.0,14.0,78,0.00,,,0.06,TxWx,2013-04-09 17:50:00,
2013-04-09 13:55:00,47.0,40.0,29.94,West,270,10.0,13.0,78,0.00,,,0.06,TxWx,2013-04-09 17:55:00,
2013-04-09 14:00:00,48.0,41.0,29.95,West,270,6.0,20.0,78,0.00,,,0.06,TxWx,2013-04-09 18:00:00,
2013-04-09 14:01:00,49.0,39.0,29.82,ESE,112,5.0,5.0,69,0.00,,,0.06,TxWx,2013-04-09 18:01:00,
2013-04-09 14:02:00,49.0,39.0,29.82,East,90,4.0,4.0,69,0.00,,,0.06,TxWx,2013-04-09 18:02:00,
2013-04-09 14:03:00,49.0,40.0,29.82,ESE,112,5.0,5.0,69,0.00,,,0.06,TxWx,2013-04-09 18:03:00,
2013-04-09 14:04:00,49.0,39.0,29.83,ESE,112,5.0,5.0,70,0.00,,,0.06,TxWx,2013-04-09 18:04:00,
2013-04-09 14:05:00,48.0,41.0,29.95,NW,315,15.0,19.0,77,0.00,,,0.06,TxWx,2013-04-09 18:05:00,
2013-04-09 14:10:00,48.0,41.0,29.95,West,270,13.0,13.0,76,0.00,,,0.06,TxWx,2013-04-09 18:10:00,
2013-04-09 14:11:00,49.0,40.0,29.83,SSW,202,2.0,2.0,70,0.00,,,0.06,TxWx,2013-04-09 18:11:00,
2013-04-09 14:12:00,49.0,40.0,29.83,SSW,202,3.0,3.0,70,0.00,,,0.06,TxWx,2013-04-09 18:12:00,
2013-04-09 14:13:00,49.0,40.0,29.83,SSW,202,3.0,3.0,71,0.00,,,0.06,TxWx,2013-04-09 18:13:00,
2013-04-09 14:14:00,49.0,40.0,29.83,SSW,202,3.0,3.0,71,0.00,,,0.06,TxWx,2013-04-09 18:14:00,
2013-04-09 14:15:00,49.0,41.0,29.95,West,270,11.0,12.0,74,0.00,,,0.06,TxWx,2013-04-09 18:15:00,
2013-04-09 14:20:00,48.0,41.0,29.95,WSW,247,11.0,18.0,74,0.00,,,0.06,TxWx,2013-04-09 18:20:00,
2013-04-09 14:21:00,49.0,40.0,29.83,West,270,3.0,3.0,71,0.00,,,0.06,TxWx,2013-04-09 18:21:00,
2013-04-09 14:22:00,49.0,40.0,29.83,West,270,3.0,3.0,71,0.00,,,0.06,TxWx,2013-04-09 18:22:00,
2013-04-09 14:23:00,49.0,40.0,29.84,West,270,3.0,3.0,71,0.00,,,0.06,TxWx,2013-04-09 18:23:00,
2013-04-09 14:24:00,49.0,40.0,29.84,WSW,247,4.0,5.0,72,0.00,,,0.06,TxWx,2013-04-09 18:24:00,
2013-04-09 14:25:00,49.0,40.0,29.84,West,270,3.0,4.0,72,0.00,,,0.06,TxWx,2013-04-09 18:25:00,
2013-04-09 14:26:00,48.0,40.0,29.95,West,270,13.0,16.0,74,0.00,,,0.06,TxWx,2013-04-09 18:26:00,
2013-04-09 14:29:00,47.0,39.0,29.86,West,270,5.0,6.0,74,0.00,,,0.06,TxWx,2013-04-09 18:29:00,
2013-04-09 14:30:00,47.0,39.0,29.86,West,270,6.0,6.0,74,0.00,,,0.06,TxWx,2013-04-09 18:30:00,
2013-04-09 14:31:00,48.0,40.0,29.94,West,270,14.0,21.0,74,0.00,,,0.06,TxWx,2013-04-09 18:31:00,
2013-04-09 14:32:00,47.0,40.0,29.87,West,270,6.0,7.0,76,0.00,,,0.06,TxWx,2013-04-09 18:32:00,
2013-04-09 14:33:00,47.0,40.0,29.88,NW,315,6.0,6.0,77,0.00,,,0.06,TxWx,2013-04-09 18:33:00,
2013-04-09 14:36:00,50.0,42.0,29.93,SW,225,11.0,12.0,74,0.00,,,0.06,TxWx,2013-04-09 18:36:00,
2013-04-09 14:41:00,50.0,42.0,29.94,SW,225,11.0,11.0,73,0.00,,,0.06,TxWx,2013-04-09 18:41:00,
2013-04-09 14:46:00,50.0,41.0,29.94,SW,225,14.0,14.0,71,0.00,,,0.06,TxWx,2013-04-09 18:46:00,
2013-04-09 14:47:00,47.0,42.0,29.89,WNW,292,8.0,9.0,84,0.00,,,0.07,TxWx,2013-04-09 18:47:00,
2013-04-09 14:48:00,47.0,43.0,29.89,NW,315,9.0,9.0,85,0.00,,,0.07,TxWx,2013-04-09 18:48:00,
2013-04-09 14:51:00,49.0,40.0,29.94,WSW,247,11.0,14.0,71,0.00,,,0.06,TxWx,2013-04-09 18:51:00,
2013-04-09 14:56:00,49.0,40.0,29.93,West,270,10.0,10.0,71,0.00,,,0.06,TxWx,2013-04-09 18:56:00,
2013-04-09 15:01:00,51.0,42.0,29.93,WSW,247,10.0,12.0,71,0.00,,,0.06,TxWx,2013-04-09 19:01:00,
2013-04-09 15:07:00,50.0,40.0,29.93,West,270,11.0,13.0,69,0.00,,,0.06,TxWx,2013-04-09 19:07:00,
2013-04-09 15:12:00,51.0,41.0,29.93,West,270,9.0,13.0,69,0.00,,,0.06,TxWx,2013-04-09 19:12:00,
2013-04-09 15:17:00,50.0,40.0,29.93,West,270,11.0,12.0,68,0.00,,,0.06,TxWx,2013-04-09 19:17:00,
2013-04-09 15:22:00,51.0,41.0,29.93,West,270,8.0,10.0,69,0.00,,,0.06,TxWx,2013-04-09 19:22:00,
2013-04-09 15:27:00,51.0,41.0,29.93,SW,225,11.0,12.0,68,0.00,,,0.06,TxWx,2013-04-09 19:27:00,
2013-04-09 15:32:00,52.0,41.0,29.93,West,270,10.0,10.0,67,0.00,,,0.06,TxWx,2013-04-09 19:32:00,
2013-04-09 15:38:00,51.0,40.0,29.92,WNW,292,6.0,8.0,67,0.00,,,0.06,TxWx,2013-04-09 19:38:00,
2013-04-09 15:43:00,51.0,40.0,29.92,WSW,247,11.0,13.0,67,0.00,,,0.06,TxWx,2013-04-09 19:43:00,
2013-04-09 15:48:00,51.0,40.0,29.92,WSW,247,8.0,10.0,67,0.00,,,0.06,TxWx,2013-04-09 19:48:00,
2013-04-09 15:53:00,52.0,41.0,29.92,SSW,202,7.0,11.0,66,0.00,,,0.06,TxWx,2013-04-09 19:53:00,
2013-04-09 15:58:00,52.0,41.0,29.92,WSW,247,6.0,11.0,66,0.00,,,0.06,TxWx,2013-04-09 19:58:00,
2013-04-09 16:10:00,45.0,45.0,29.83,East,90,13.0,13.0,99,0.60,,,0.37,TxWx,2013-04-09 20:10:00,
2013-04-09 16:11:00,45.0,45.0,29.83,East,90,7.0,9.0,99,0.60,,,0.37,TxWx,2013-04-09 20:11:00,
2013-04-09 16:12:00,45.0,45.0,29.83,ENE,67,8.0,11.0,99,0.60,,,0.37,TxWx,2013-04-09 20:12:00,
2013-04-09 16:13:00,51.0,40.0,29.92,West,270,6.0,10.0,67,0.00,,,0.06,TxWx,2013-04-09 20:13:00,
2013-04-09 16:14:00,45.0,45.0,29.83,East,90,11.0,12.0,100,0.60,,,0.38,TxWx,2013-04-09 20:14:00,
2013-04-09 16:19:00,51.0,40.0,29.92,SW,225,11.0,13.0,66,0.00,,,0.06,TxWx,2013-04-09 20:19:00,
2013-04-09 16:21:00,45.0,45.0,29.83,ENE,67,10.0,11.0,100,0.60,,,0.39,TxWx,2013-04-09 20:21:00,
2013-04-09 16:22:00,45.0,45.0,29.83,ENE,67,8.0,9.0,100,0.60,,,0.39,TxWx,2013-04-09 20:22:00,
2013-04-09 16:23:00,45.0,45.0,29.83,NE,45,9.0,10.0,100,0.60,,,0.39,TxWx,2013-04-09 20:23:00,
2013-04-09 16:24:00,52.0,41.0,29.92,South,180,8.0,8.0,65,0.00,,,0.06,TxWx,2013-04-09 20:24:00,
2013-04-09 16:25:00,45.0,45.0,29.82,ENE,67,13.0,13.0,100,0.60,,,0.39,TxWx,2013-04-09 20:25:00,
2013-04-09 16:29:00,51.0,40.0,29.92,SW,225,9.0,11.0,65,0.00,,,0.06,TxWx,2013-04-09 20:29:00,
2013-04-09 16:34:00,52.0,40.0,29.93,SW,225,14.0,18.0,65,0.00,,,0.06,TxWx,2013-04-09 20:34:00,
2013-04-09 16:39:00,51.0,39.0,29.93,WSW,247,8.0,11.0,65,0.00,,,0.06,TxWx,2013-04-09 20:39:00,
2013-04-09 16:44:00,52.0,41.0,29.94,SSW,202,6.0,6.0,66,0.00,,,0.06,TxWx,2013-04-09 20:44:00,
2013-04-09 16:50:00,52.0,40.0,29.92,SW,225,7.0,7.0,65,0.00,,,0.06,TxWx,2013-04-09 20:50:00,
2013-04-09 16:55:00,52.0,41.0,29.93,SSW,202,8.0,11.0,64,0.00,,,0.06,TxWx,2013-04-09 20:55:00,
2013-04-09 17:01:00,52.0,40.0,29.93,WSW,247,8.0,11.0,63,0.00,,,0.06,TxWx,2013-04-09 21:01:00,
2013-04-09 17:06:00,53.0,41.0,29.93,West,270,7.0,8.0,63,0.00,,,0.06,TxWx,2013-04-09 21:06:00,
2013-04-09 17:11:00,52.0,40.0,29.93,West,270,6.0,9.0,63,0.00,,,0.06,TxWx,2013-04-09 21:11:00,
2013-04-09 17:16:00,53.0,41.0,29.93,WSW,247,6.0,6.0,63,0.00,,,0.06,TxWx,2013-04-09 21:16:00,
2013-04-09 17:21:00,52.0,39.0,29.93,West,270,10.0,10.0,62,0.00,,,0.06,TxWx,2013-04-09 21:21:00,
2013-04-09 17:22:00,46.0,46.0,29.82,SE,135,0.0,0.0,100,0.00,,,0.40,TxWx,2013-04-09 21:22:00,
2013-04-09 17:23:00,46.0,46.0,29.82,SSE,157,0.0,0.0,100,0.00,,,0.40,TxWx,2013-04-09 21:23:00,
2013-04-09 17:24:00,46.0,46.0,29.82,SSW,202,2.0,2.0,100,0.00,,,0.40,TxWx,2013-04-09 21:24:00,
2013-04-09 17:26:00,52.0,40.0,29.93,SW,225,6.0,8.0,63,0.00,,,0.06,TxWx,2013-04-09 21:26:00,
2013-04-09 17:31:00,53.0,41.0,29.93,SW,225,5.0,6.0,63,0.00,,,0.06,TxWx,2013-04-09 21:31:00,
2013-04-09 17:36:00,53.0,40.0,29.93,SW,225,5.0,7.0,62,0.00,,,0.06,TxWx,2013-04-09 21:36:00,
2013-04-09 17:41:00,52.0,39.0,29.93,WSW,247,6.0,7.0,62,0.00,,,0.06,TxWx,2013-04-09 21:41:00,
2013-04-09 17:46:00,52.0,40.0,29.92,West,270,6.0,6.0,63,0.00,,,0.06,TxWx,2013-04-09 21:46:00,
2013-04-09 17:51:00,52.0,40.0,29.92,WSW,247,4.0,6.0,64,0.00,,,0.06,TxWx,2013-04-09 21:51:00,
2013-04-09 17:58:00,53.0,40.0,29.92,SW,225,5.0,5.0,62,0.00,,,0.06,TxWx,2013-04-09 21:58:00,
2013-04-09 18:03:00,53.0,40.0,29.93,SSW,202,2.0,3.0,62,0.00,,,0.06,TxWx,2013-04-09 22:03:00,
2013-04-09 18:08:00,53.0,40.0,29.93,WNW,292,6.0,6.0,62,0.00,,,0.06,TxWx,2013-04-09 22:08:00,
2013-04-09 18:13:00,53.0,40.0,29.93,SW,225,5.0,5.0,62,0.00,,,0.06,TxWx,2013-04-09 22:13:00,
2013-04-09 18:18:00,52.0,40.0,29.93,SSW,202,5.0,6.0,63,0.00,,,0.06,TxWx,2013-04-09 22:18:00,
2013-04-09 18:23:00,52.0,40.0,29.92,West,270,7.0,8.0,63,0.00,,,0.06,TxWx,2013-04-09 22:23:00,
2013-04-09 18:28:00,52.0,40.0,29.93,West,270,5.0,5.0,64,0.00,,,0.06,TxWx,2013-04-09 22:28:00,
2013-04-09 18:31:00,45.0,45.0,29.82,NW,315,5.0,5.0,100,0.00,,,0.40,TxWx,2013-04-09 22:31:00,
2013-04-09 18:32:00,45.0,45.0,29.82,West,270,5.0,5.0,100,0.00,,,0.40,TxWx,2013-04-09 22:32:00,
2013-04-09 18:33:00,52.0,40.0,29.92,SW,225,2.0,3.0,65,0.00,,,0.06,TxWx,2013-04-09 22:33:00,
2013-04-09 18:34:00,45.0,45.0,29.82,NW,315,4.0,6.0,100,0.00,,,0.40,TxWx,2013-04-09 22:34:00,
2013-04-09 18:35:00,44.0,44.0,29.81,West,270,4.0,6.0,100,0.00,,,0.40,TxWx,2013-04-09 22:35:00,
2013-04-09 18:38:00,52.0,40.0,29.91,SSW,202,2.0,3.0,65,0.00,,,0.06,TxWx,2013-04-09 22:38:00,
2013-04-09 18:43:00,51.0,39.0,29.91,WNW,292,5.0,5.0,64,0.00,,,0.06,TxWx,2013-04-09 22:43:00,
2013-04-09 18:49:00,51.0,39.0,29.91,SSW,202,1.0,2.0,64,0.00,,,0.06,TxWx,2013-04-09 22:49:00,
2013-04-09 18:54:00,51.0,39.0,29.91,West,270,3.0,3.0,65,0.00,,,0.06,TxWx,2013-04-09 22:54:00,
2013-04-09 18:59:00,51.0,40.0,29.91,WNW,292,3.0,3.0,65,0.00,,,0.06,TxWx,2013-04-09 22:59:00,
2013-04-09 19:04:00,51.0,39.0,29.91,West,270,5.0,5.0,65,0.00,,,0.06,TxWx,2013-04-09 23:04:00,
2013-04-09 19:06:00,44.0,44.0,29.83,NW,315,6.0,6.0,100,0.00,,,0.40,TxWx,2013-04-09 23:06:00,
2013-04-09 19:07:00,44.0,44.0,29.83,NW,315,3.0,4.0,100,0.00,,,0.40,TxWx,2013-04-09 23:07:00,
2013-04-09 19:08:00,44.0,44.0,29.83,NW,315,5.0,6.0,100,0.00,,,0.41,TxWx,2013-04-09 23:08:00,
2013-04-09 19:09:00,44.0,44.0,29.83,NNW,337,5.0,5.0,100,0.00,,,0.41,TxWx,2013-04-09 23:09:00,
2013-04-09 19:10:00,44.0,44.0,29.83,NW,315,6.0,6.0,100,0.60,,,0.41,TxWx,2013-04-09 23:10:00,
2013-04-09 19:11:00,51.0,40.0,29.93,WNW,292,6.0,6.0,65,0.00,,,0.06,TxWx,2013-04-09 23:11:00,
2013-04-09 19:20:00,51.0,40.0,29.92,West,270,3.0,3.0,66,0.00,,,0.06,TxWx,2013-04-09 23:20:00,
2013-04-09 19:25:00,51.0,40.0,29.92,WNW,292,5.0,5.0,66,0.00,,,0.06,TxWx,2013-04-09 23:25:00,
2013-04-09 19:31:00,51.0,39.0,29.92,WNW,292,6.0,7.0,65,0.00,,,0.06,TxWx,2013-04-09 23:31:00,
2013-04-09 19:36:00,51.0,39.0,29.92,West,270,5.0,6.0,64,0.00,,,0.06,TxWx,2013-04-09 23:36:00,
2013-04-09 19:41:00,51.0,39.0,29.92,WNW,292,5.0,5.0,64,0.00,,,0.06,TxWx,2013-04-09 23:41:00,
2013-04-09 19:46:00,51.0,39.0,29.93,West,270,6.0,6.0,64,0.00,,,0.06,TxWx,2013-04-09 23:46:00,
2013-04-09 19:47:00,44.0,44.0,29.82,ENE,67,4.0,4.0,100,0.00,,,0.41,TxWx,2013-04-09 23:47:00,
2013-04-09 19:48:00,44.0,44.0,29.83,ENE,67,4.0,5.0,100,0.00,,,0.41,TxWx,2013-04-09 23:48:00,
2013-04-09 19:49:00,44.0,44.0,29.82,NE,45,6.0,7.0,100,0.00,,,0.41,TxWx,2013-04-09 23:49:00,
2013-04-09 19:50:00,45.0,45.0,29.82,ENE,67,4.0,5.0,100,0.00,,,0.41,TxWx,2013-04-09 23:50:00,
2013-04-09 19:51:00,52.0,40.0,29.93,WNW,292,5.0,6.0,64,0.00,,,0.06,TxWx,2013-04-09 23:51:00,
2013-04-09 19:56:00,52.0,39.0,29.93,NW,315,7.0,8.0,63,0.00,,,0.06,TxWx,2013-04-09 23:56:00,
2013-04-09 20:01:00,51.0,39.0,29.93,WNW,292,6.0,8.0,63,0.00,,,0.06,TxWx,2013-04-10 00:01:00,
2013-04-09 20:06:00,51.0,39.0,29.93,NNW,337,6.0,7.0,63,0.00,,,0.06,TxWx,2013-04-10 00:06:00,
2013-04-09 20:11:00,51.0,39.0,29.92,NNW,337,8.0,8.0,64,0.00,,,0.06,TxWx,2013-04-10 00:11:00,
2013-04-09 20:16:00,51.0,39.0,29.92,North,0,7.0,8.0,64,0.00,,,0.06,TxWx,2013-04-10 00:16:00,
2013-04-09 20:21:00,51.0,39.0,29.93,NNW,337,7.0,8.0,64,0.00,,,0.06,TxWx,2013-04-10 00:21:00,
2013-04-09 20:27:00,51.0,39.0,29.92,NNW,337,7.0,7.0,64,0.00,,,0.06,TxWx,2013-04-10 00:27:00,
2013-04-09 20:32:00,52.0,40.0,29.91,North,0,8.0,11.0,63,0.00,,,0.06,TxWx,2013-04-10 00:32:00,
2013-04-09 20:37:00,51.0,40.0,29.92,NNW,337,7.0,8.0,63,0.00,,,0.06,TxWx,2013-04-10 00:37:00,
2013-04-09 20:42:00,52.0,40.0,29.93,NNW,337,3.0,5.0,64,0.00,,,0.06,TxWx,2013-04-10 00:42:00,
2013-04-09 20:47:00,51.0,40.0,29.93,NNW,337,5.0,7.0,63,0.00,,,0.06,TxWx,2013-04-10 00:47:00,
2013-04-09 20:51:00,44.0,44.0,29.85,West,270,3.0,4.0,100,0.00,,,0.41,TxWx,2013-04-10 00:51:00,
2013-04-09 20:52:00,51.0,39.0,29.93,NW,315,3.0,5.0,62,0.00,,,0.06,TxWx,2013-04-10 00:52:00,
2013-04-09 20:53:00,44.0,44.0,29.85,WSW,247,2.0,3.0,100,0.00,,,0.41,TxWx,2013-04-10 00:53:00,
2013-04-09 20:54:00,44.0,44.0,29.85,WSW,247,2.0,3.0,100,0.00,,,0.41,TxWx,2013-04-10 00:54:00,
2013-04-09 20:55:00,44.0,44.0,29.85,SSW,202,2.0,3.0,100,0.00,,,0.41,TxWx,2013-04-10 00:55:00,
2013-04-09 20:57:00,52.0,39.0,29.93,North,0,2.0,3.0,62,0.00,,,0.06,TxWx,2013-04-10 00:57:00,
2013-04-09 21:02:00,52.0,39.0,29.93,NNW,337,3.0,4.0,62,0.00,,,0.06,TxWx,2013-04-10 01:02:00,
2013-04-09 21:07:00,52.0,39.0,29.93,NE,45,3.0,3.0,62,0.00,,,0.06,TxWx,2013-04-10 01:07:00,
2013-04-09 21:12:00,52.0,39.0,29.93,ENE,67,2.0,2.0,62,0.00,,,0.06,TxWx,2013-04-10 01:12:00,
2013-04-09 21:16:00,44.0,44.0,29.85,NW,315,3.0,4.0,100,0.00,,,0.41,TxWx,2013-04-10 01:16:00,
2013-04-09 21:17:00,44.0,44.0,29.85,West,270,3.0,3.0,100,0.00,,,0.41,TxWx,2013-04-10 01:17:00,
2013-04-09 21:18:00,44.0,44.0,29.85,West,270,4.0,4.0,100,0.00,,,0.41,TxWx,2013-04-10 01:18:00,
2013-04-09 21:19:00,44.0,44.0,29.85,NW,315,4.0,5.0,100,0.00,,,0.41,TxWx,2013-04-10 01:19:00,
2013-04-09 21:20:00,44.0,44.0,29.85,NW,315,3.0,5.0,100,0.00,,,0.41,TxWx,2013-04-10 01:20:00,
2013-04-09 21:21:00,52.0,39.0,29.94,North,0,3.0,3.0,62,0.00,,,0.06,TxWx,2013-04-10 01:21:00,
2013-04-09 21:26:00,52.0,39.0,29.93,North,0,5.0,5.0,62,0.00,,,0.06,TxWx,2013-04-10 01:26:00,
2013-04-09 21:31:00,52.0,39.0,29.92,North,0,5.0,5.0,62,0.00,,,0.06,TxWx,2013-04-10 01:31:00,
2013-04-09 21:36:00,52.0,39.0,29.91,NNE,22,6.0,6.0,62,0.00,,,0.06,TxWx,2013-04-10 01:36:00,
2013-04-09 21:41:00,52.0,39.0,29.92,NNE,22,5.0,5.0,62,0.00,,,0.06,TxWx,2013-04-10 01:41:00,
2013-04-09 21:46:00,52.0,39.0,29.92,North,0,8.0,8.0,62,0.00,,,0.06,TxWx,2013-04-10 01:46:00,
2013-04-09 21:51:00,52.0,39.0,29.92,NNW,337,7.0,7.0,62,0.00,,,0.06,TxWx,2013-04-10 01:51:00,
2013-04-09 21:56:00,52.0,39.0,29.90,NE,45,7.0,11.0,62,0.00,,,0.06,TxWx,2013-04-10 01:56:00,
2013-04-09 22:01:00,52.0,39.0,29.90,NE,45,5.0,6.0,62,0.00,,,0.06,TxWx,2013-04-10 02:01:00,
2013-04-09 22:06:00,52.0,39.0,29.91,East,90,2.0,3.0,62,0.00,,,0.06,TxWx,2013-04-10 02:06:00,
2013-04-09 22:11:00,52.0,39.0,29.91,SSW,202,3.0,3.0,62,0.00,,,0.06,TxWx,2013-04-10 02:11:00,
2013-04-09 22:16:00,52.0,40.0,29.91,SSE,157,3.0,3.0,63,0.00,,,0.06,TxWx,2013-04-10 02:16:00,
2013-04-09 22:17:00,44.0,44.0,29.88,West,270,3.0,5.0,100,0.00,,,0.41,TxWx,2013-04-10 02:17:00,
2013-04-09 22:18:00,44.0,44.0,29.87,NNW,337,4.0,5.0,100,0.00,,,0.41,TxWx,2013-04-10 02:18:00,
2013-04-09 22:19:00,44.0,44.0,29.87,NW,315,3.0,5.0,100,0.00,,,0.41,TxWx,2013-04-10 02:19:00,
2013-04-09 22:20:00,44.0,44.0,29.88,NW,315,5.0,5.0,100,0.00,,,0.41,TxWx,2013-04-10 02:20:00,
2013-04-09 22:22:00,51.0,39.0,29.90,SSE,157,0.0,0.0,63,0.00,,,0.06,TxWx,2013-04-10 02:22:00,
2013-04-09 22:27:00,52.0,40.0,29.87,NNE,22,6.0,8.0,64,0.00,,,0.06,TxWx,2013-04-10 02:27:00,
2013-04-09 22:32:00,51.0,39.0,29.88,ESE,112,3.0,3.0,65,0.00,,,0.06,TxWx,2013-04-10 02:32:00,
2013-04-09 22:37:00,51.0,40.0,29.87,East,90,2.0,3.0,66,0.00,,,0.06,TxWx,2013-04-10 02:37:00,
2013-04-09 22:45:00,51.0,40.0,29.86,NNW,337,5.0,5.0,65,0.00,,,0.06,TxWx,2013-04-10 02:45:00,
2013-04-09 22:46:00,44.0,44.0,29.88,NNW,337,3.0,5.0,100,0.00,,,0.41,TxWx,2013-04-10 02:46:00,
2013-04-09 22:47:00,44.0,44.0,29.88,NW,315,4.0,5.0,100,0.00,,,0.41,TxWx,2013-04-10 02:47:00,
2013-04-09 22:48:00,44.0,44.0,29.88,NNW,337,6.0,6.0,100,0.00,,,0.41,TxWx,2013-04-10 02:48:00,
2013-04-09 22:49:00,44.0,44.0,29.88,NNW,337,6.0,6.0,100,0.00,,,0.41,TxWx,2013-04-10 02:49:00,
2013-04-09 22:50:00,51.0,40.0,29.86,West,270,2.0,2.0,66,0.00,,,0.06,TxWx,2013-04-10 02:50:00,
2013-04-09 22:55:00,51.0,40.0,29.86,WSW,247,3.0,3.0,66,0.00,,,0.06,TxWx,2013-04-10 02:55:00,
2013-04-09 23:00:00,50.0,39.0,29.86,SW,225,3.0,3.0,67,0.00,,,0.06,TxWx,2013-04-10 03:00:00,
2013-04-09 23:05:00,50.0,40.0,29.86,West,270,3.0,3.0,68,0.00,,,0.06,TxWx,2013-04-10 03:05:00,
2013-04-09 23:10:00,50.0,40.0,29.86,WNW,292,1.0,2.0,69,0.00,,,0.06,TxWx,2013-04-10 03:10:00,
2013-04-09 23:15:00,50.0,40.0,29.86,WSW,247,1.0,1.0,69,0.00,,,0.06,TxWx,2013-04-10 03:15:00,
2013-04-09 23:20:00,50.0,40.0,29.86,West,270,3.0,3.0,69,0.00,,,0.06,TxWx,2013-04-10 03:20:00,
2013-04-09 23:21:00,46.0,46.0,29.86,NNE,22,4.0,4.0,100,0.00,,,0.41,TxWx,2013-04-10 03:21:00,
2013-04-09 23:22:00,45.0,45.0,29.86,ENE,67,3.0,4.0,100,0.00,,,0.41,TxWx,2013-04-10 03:22:00,
2013-04-09 23:23:00,45.0,45.0,29.86,North,0,6.0,8.0,100,0.00,,,0.41,TxWx,2013-04-10 03:23:00,
2013-04-09 23:24:00,45.0,45.0,29.86,North,0,3.0,4.0,100,0.00,,,0.41,TxWx,2013-04-10 03:24:00,
2013-04-09 23:25:00,50.0,40.0,29.85,NNW,337,3.0,3.0,69,0.00,,,0.06,TxWx,2013-04-10 03:25:00,
2013-04-09 23:31:00,50.0,40.0,29.85,West,270,2.0,3.0,69,0.00,,,0.06,TxWx,2013-04-10 03:31:00,
2013-04-09 23:36:00,49.0,39.0,29.85,NE,45,0.0,1.0,70,0.00,,,0.06,TxWx,2013-04-10 03:36:00,
2013-04-09 23:37:00,46.0,46.0,29.87,North,0,4.0,5.0,100,0.00,,,0.41,TxWx,2013-04-10 03:37:00,
2013-04-09 23:38:00,46.0,46.0,29.87,West,270,3.0,3.0,100,0.00,,,0.41,TxWx,2013-04-10 03:38:00,
2013-04-09 23:39:00,46.0,46.0,29.87,NNW,337,3.0,5.0,100,0.00,,,0.41,TxWx,2013-04-10 03:39:00,
2013-04-09 23:40:00,46.0,46.0,29.87,NW,315,3.0,3.0,100,0.00,,,0.41,TxWx,2013-04-10 03:40:00,
2013-04-09 23:41:00,49.0,40.0,29.83,NNE,22,2.0,2.0,70,0.00,,,0.06,TxWx,2013-04-10 03:41:00,
2013-04-09 23:46:00,49.0,40.0,29.83,NNE,22,3.0,3.0,70,0.00,,,0.06,TxWx,2013-04-10 03:46:00,
2013-04-09 23:51:00,50.0,41.0,29.82,ENE,67,6.0,6.0,70,0.00,,,0.06,TxWx,2013-04-10 03:51:00,
2013-04-09 23:56:00,50.0,40.0,29.82,East,90,6.0,6.0,69,0.00,,,0.06,TxWx,2013-04-10 03:56:00,